COSMOS 1275 DEB, 13466

Orbit data source: Space-Track

COSMOS 1275 DEB, 13466 is space debris in LEO originally from a launch on Thu, 04 Jun 1981 UTC launched from the Plesetsk Missile And Space Complex (PKMTR). Debris objects in space refer to the collection of defunct objects orbiting the Earth. Examples of debris include non-operational satellites, rocket bodies, and fragments generated from explosions, collisions, or faulty payload assembly.

Loading next visibility...
Identifier
13466, 1981-053FN
Orbit
LEO
Country
Flag of CISCIS
Related business
Manufacturer
Unknown
Mission
Spacecraft
Bus & Motor
Unknown
Mass
Unknown
Launch date (UTC)
1981-06-04 (44 years ago)
Launch vehicle
Unknown
Launch site
Plesetsk Missile And Space Complex (PKMTR)
Object type
Payload
Rocket body
Debris
Shape & HBR
Unknown shape, 0.1 m
Radar Cross Section
Small (<0.1 m²)

Expand to show TLE details & history
Last TLE update: 9 hours ago

TLE from 9 hours ago
0 COSMOS 1275 DEB
1 13466U 81053FN  25296.18388079 -.00000021  00000-0 -46324-4 0  9993
2 13466  83.0735 354.0281 0144569 160.9849 256.0514 13.60305089148749
Epoch: 2025-10-23T04:24Z
TLE epoch observation values (Epoch: 2025-10-23T04:24:47.300Z)
Latitude
54.92911°
Longitude
-94.10289°
Altitude
1,070.954 km
Speed
7.308 km/s
True Right ascension
00h 15m 45s
True Declination
54° 46' 26"
Sunlit
Object was in full shadow at epoch
Visualization orbit readout
Latitude
Unknown
Longitude
Unknown
Altitude
Unknown
Speed
Unknown
Apparent Right ascension
Unknown
Apparent Declination
Unknown
Sunlit
N/A
Visualization observer readout
Local Sidereal Time
08:55:27
Azimuth
Unknown
Elevation
Unknown
Doppler factor
Unknown
Orbital elements
Apogee altitude
1,138.871 km
Perigee altitude
924.623 km
Semi-major axis
7,409.884 km
Eccentricity
0.01446
Inclination
83.0735°
RAAN
354.0281°
Arg. of periapsis
160.9849°
True anomaly
254.45079°
Mean anomaly
256.0514°
Eccentric anomaly
255.25038°
Mean motion
3.40272 °/min
Orbital period
105.8 mins
BSTAR
-0.000046324
Loading maneuver chart data...
Computing Atmospheric mass density...

Documentation

Showing up to 5 results
|